TimePST,TemperatureF,Dew PointF,Humidity,Sea Level PressureIn,VisibilityMPH,Wind Direction,Wind SpeedMPH,Gust SpeedMPH,PrecipitationIn,Events,Conditions,WindDirDegrees,DateUTC
12:53 AM,43.0,37.9,82,30.34,10.0,Calm,Calm,-,N/A,,Overcast,0,2013-02-12 08:53:00
1:53 AM,43.0,37.9,82,30.35,10.0,WSW,5.8,-,N/A,,Overcast,240,2013-02-12 09:53:00
2:53 AM,42.1,37.9,85,30.35,10.0,SSW,3.5,-,N/A,,Overcast,200,2013-02-12 10:53:00
3:53 AM,42.1,37.9,85,30.35,10.0,SW,3.5,-,N/A,,Overcast,220,2013-02-12 11:53:00
4:53 AM,41.0,37.9,89,30.34,10.0,WSW,3.5,-,N/A,,Overcast,240,2013-02-12 12:53:00
5:53 AM,39.9,37.9,93,30.34,10.0,Calm,Calm,-,N/A,,Overcast,0,2013-02-12 13:53:00
6:53 AM,41.0,37.9,89,30.36,10.0,WSW,4.6,-,N/A,,Overcast,250,2013-02-12 14:53:00
7:23 AM,42.1,37.0,82,30.35,10.0,WSW,3.5,-,N/A,,Overcast,250,2013-02-12 15:23:00
7:53 AM,42.1,37.0,82,30.37,10.0,SW,4.6,-,N/A,,Overcast,230,2013-02-12 15:53:00
8:41 AM,44.1,39.9,85,30.36,10.0,Calm,Calm,-,N/A,,Overcast,0,2013-02-12 16:41:00
8:53 AM,44.1,39.9,85,30.36,10.0,SE,3.5,-,N/A,,Overcast,140,2013-02-12 16:53:00
9:53 AM,46.0,39.0,76,30.38,10.0,Calm,Calm,-,0.00,,Overcast,0,2013-02-12 17:53:00
10:53 AM,48.0,41.0,77,30.37,10.0,ESE,4.6,-,N/A,,Overcast,110,2013-02-12 18:53:00
11:53 AM,50.0,41.0,71,30.35,10.0,East,6.9,-,N/A,,Mostly Cloudy,80,2013-02-12 19:53:00
12:53 PM,46.9,39.9,77,30.35,10.0,NNE,5.8,-,N/A,,Overcast,30,2013-02-12 20:53:00
1:53 PM,48.9,42.1,77,30.30,10.0,NE,6.9,-,N/A,,Clear,40,2013-02-12 21:53:00
2:15 PM,46.0,42.1,86,30.32,10.0,NNW,6.9,-,N/A,,Scattered Clouds,330,2013-02-12 22:15:00
2:53 PM,46.0,42.1,86,30.34,10.0,Variable,3.5,-,N/A,,Overcast,0,2013-02-12 22:53:00
3:05 PM,46.0,41.0,83,30.33,10.0,Calm,Calm,-,N/A,,Overcast,0,2013-02-12 23:05:00
3:53 PM,46.9,39.9,77,30.32,10.0,Calm,Calm,-,N/A,,Overcast,0,2013-02-12 23:53:00
4:02 PM,46.9,41.0,80,30.32,10.0,Calm,Calm,-,N/A,,Overcast,0,2013-02-13 00:02:00
4:53 PM,46.9,41.0,80,30.31,10.0,South,5.8,-,0.00,Rain,Light Rain,170,2013-02-13 00:53:00
5:53 PM,46.0,41.0,83,30.30,10.0,WSW,3.5,-,0.00,Rain,Light Rain,240,2013-02-13 01:53:00
6:02 PM,46.0,41.0,83,30.29,10.0,WSW,3.5,-,0.00,Rain,Light Rain,250,2013-02-13 02:02:00
6:24 PM,46.0,42.1,86,30.28,10.0,Calm,Calm,-,0.00,Rain,Light Rain,0,2013-02-13 02:24:00
6:53 PM,46.0,42.1,86,30.28,10.0,WSW,6.9,-,0.00,Rain,Light Rain,250,2013-02-13 02:53:00
7:53 PM,46.9,42.1,83,30.27,10.0,West,8.1,-,0.00,,Overcast,260,2013-02-13 03:53:00
8:53 PM,48.9,39.0,69,30.24,10.0,West,11.5,-,N/A,,Clear,270,2013-02-13 04:53:00
9:53 PM,48.0,43.0,83,30.26,10.0,NW,8.1,19.6,N/A,,Clear,310,2013-02-13 05:53:00
10:27 PM,46.0,43.0,89,30.25,10.0,WNW,13.8,-,N/A,,Scattered Clouds,300,2013-02-13 06:27:00
10:53 PM,46.0,43.0,89,30.27,10.0,NW,17.3,28.8,N/A,,Scattered Clouds,310,2013-02-13 06:53:00
11:13 PM,46.0,42.1,86,30.26,10.0,West,12.7,-,N/A,,Mostly Cloudy,280,2013-02-13 07:13:00
11:23 PM,46.0,41.0,83,30.26,10.0,WNW,12.7,-,N/A,,Scattered Clouds,300,2013-02-13 07:23:00
11:53 PM,45.0,39.9,82,30.28,10.0,West,6.9,-,N/A,,Clear,270,2013-02-13 07:53:00